sat.trackr.live / text

‹ back to catalog

STARLINK-36274

NORAD 68251 · 2026-054V

PAYLOAD ACTIVE UNKNOWN

§ Identity

Operator
Country
US
Launch date
2026-03-17
Launch site
AFETR
Launch vehicle
Mass (kg)
RCS (m²)

Purposes: comms

External: N2YO · Heavens-Above · Gunter

§ Orbital elements

Epoch: 2026-09-19T21:12:11.327616Z

Period
93.85 min
Inclination
53.1574°
Eccentricity
0.0001320
Mean motion
15.34410043 rev/d
Perigee alt
461.8 km
Apogee alt
463.6 km
Semi-major
6,840.8 km
B*
4.3147e-4
RAAN
112.7746°
Arg perigee
86.3388°
Mean anomaly
273.7766°
Rev number
2,875

§ Raw data

STARLINK-362741 68251U 26054V   26262.88346444  .00014234  00000+0  43147-3 0  99932 68251  53.1574 112.7746 0001320  86.3388 273.7766 15.34410043 28754

JSON: /api/v1/satellites/68251 · /tle

For live sub-satellite position, see the globe view (requires WebGL).

§ Visibility from observer

Set your observer location to see the next 7 days of passes ≥ 10°. The values pass through the URL so the page stays shareable.

No JS? Fill the form by hand. The geolocation button needs JavaScript.